| time (UTC) | temp C | wind direction | speed KPH | gust KPH | rain 1hr cm | rain 24hr cm | rain mn cm | humidity % | barometer mb |
| 20260906141221 | 20 | 19 | 3.2 | 4.8 | 0.00 | 0.00 | 0.00 | 82 | 1015.8 |
| 20260906140720 | 20 | 45 | 3.2 | 6.4 | 0.00 | 0.00 | 0.00 | 81 | 1015.9 |
| 20260906140215 | 19 | 12 | 3.2 | 4.8 | 0.00 | 0.00 | 0.00 | 83 | 1016.1 |
| 20260906135712 | 19 | 27 | 4.8 | 6.4 | 0.00 | 0.00 | 0.00 | 87 | 1016.1 |
| 20260906135208 | 20 | 31 | 3.2 | 6.4 | 0.00 | 0.00 | 0.00 | 85 | 1016.2 |
| 20260906134703 | 20 | 29 | 0.0 | 6.4 | 0.00 | 0.00 | 0.00 | 84 | 1016.0 |
| 20260906134159 | 20 | 82 | 3.2 | 6.4 | 0.00 | 0.00 | 0.00 | 86 | 1015.9 |
| 20260906133654 | 19 | 95 | 6.4 | 6.4 | 0.00 | 0.00 | 0.00 | 86 | 1015.7 |
| 20260906133149 | 18 | 79 | 3.2 | 6.4 | 0.00 | 0.00 | 0.00 | 88 | 1015.8 |
| 20260906132639 | 18 | 28 | 3.2 | 6.4 | 0.00 | 0.00 | 0.00 | 90 | 1016.0 |
| 20260906132135 | 18 | 17 | 3.2 | 4.8 | 0.00 | 0.00 | 0.00 | 92 | 1015.9 |
| 20260906131630 | 18 | 10 | 4.8 | 6.4 | 0.00 | 0.00 | 0.00 | 93 | 1015.8 |
| 20260906131125 | 17 | 83 | 4.8 | 6.4 | 0.00 | 0.00 | 0.00 | 93 | 1015.8 |
| 20260906130620 | 17 | 76 | 3.2 | 4.8 | 0.00 | 0.00 | 0.00 | 96 | 1015.9 |
| 20260906130116 | 16 | 56 | 1.6 | 3.2 | 0.00 | 0.00 | 0.00 | 96 | 1016.0 |
| 20260906125613 | 16 | 71 | 3.2 | 6.4 | 0.00 | 0.00 | 0.00 | 97 | 1015.9 |
| 20260906125112 | 16 | 83 | 4.8 | 4.8 | 0.00 | 0.00 | 0.00 | 99 | 1015.9 |
| 20260906124607 | 15 | 118 | 4.8 | 6.4 | 0.00 | 0.00 | 0.00 | 99 | 1015.8 |
| 20260906124102 | 16 | 28 | 3.2 | 3.2 | 0.00 | 0.00 | 0.00 | 99 | 1015.9 |
| 20260906123601 | 15 | 37 | 1.6 | 4.8 | 0.00 | 0.00 | 0.00 | 99 | 1015.8 |
| 20260906123057 | 15 | 23 | 1.6 | 4.8 | 0.00 | 0.00 | 0.00 | 99 | 1015.8 |
| 20260906122555 | 15 | 31 | 3.2 | 3.2 | 0.00 | 0.00 | 0.00 | 99 | 1015.7 |
| 20260906122052 | 14 | 29 | 0.0 | 3.2 | 0.00 | 0.00 | 0.00 | 99 | 1016.0 |
| 20260906121548 | 13 | 75 | 3.2 | 3.2 | 0.00 | 0.00 | 0.00 | 99 | 1015.6 |
| 20260906121044 | 13 | 64 | 3.2 | 3.2 | 0.00 | 0.00 | 0.00 | 99 | 1015.7 |
| 20260906120539 | 13 | 77 | 3.2 | 4.8 | 0.00 | 0.00 | 0.00 | 99 | 1015.6 |
| 20260906120037 | 13 | 92 | 1.6 | 3.2 | 0.00 | 0.00 | 0.00 | 99 | 1015.6 |
| 20260906115531 | 13 | 74 | 1.6 | 3.2 | 0.00 | 0.00 | 0.00 | 99 | 1015.7 |
| 20260906115026 | 13 | 55 | 1.6 | 3.2 | 0.00 | 0.00 | 0.00 | 99 | 1015.7 |
| 20260906114525 | 13 | 61 | 3.2 | 3.2 | 0.00 | 0.00 | 0.00 | 99 | 1015.5 |
| 20260906114021 | 13 | 73 | 1.6 | 4.8 | 0.00 | 0.00 | 0.00 | 99 | 1015.5 |
| 20260906113520 | 12 | 70 | 0.0 | 3.2 | 0.00 | 0.00 | 0.00 | 99 | 1015.3 |
| 20260906113016 | 12 | 42 | 3.2 | 3.2 | 0.00 | 0.00 | 0.00 | 99 | 1015.4 |
| 20260906112510 | 12 | 54 | 3.2 | 4.8 | 0.00 | 0.00 | 0.00 | 99 | 1015.3 |
| 20260906112007 | 12 | 40 | 3.2 | 3.2 | 0.00 | 0.00 | 0.00 | 99 | 1015.2 |
| 20260906111506 | 12 | 66 | 3.2 | 3.2 | 0.00 | 0.00 | 0.00 | 99 | 1015.6 |
| 20260906111001 | 12 | 77 | 3.2 | 3.2 | 0.00 | 0.00 | 0.00 | 99 | 1015.4 |
| 20260906110456 | 12 | 41 | 0.0 | 3.2 | 0.00 | 0.00 | 0.00 | 99 | 1015.4 |
| 20260906105954 | 12 | 359 | 0.0 | 1.6 | 0.00 | 0.00 | 0.00 | 99 | 1015.1 |
| 20260906105451 | 12 | 25 | 0.0 | 1.6 | 0.00 | 0.00 | 0.00 | 99 | 1015.1 |
| 20260906104947 | 12 | 53 | 0.0 | 3.2 | 0.00 | 0.00 | 0.00 | 99 | 1015.0 |
| 20260906104445 | 12 | 38 | 1.6 | 3.2 | 0.00 | 0.00 | 0.00 | 99 | 1015.1 |
| 20260906103944 | 12 | 31 | 1.6 | 3.2 | 0.00 | 0.00 | 0.00 | 99 | 1015.3 |
| 20260906103443 | 12 | 49 | 3.2 | 3.2 | 0.00 | 0.00 | 0.00 | 99 | 1015.0 |
| 20260906102938 | 12 | 38 | 1.6 | 3.2 | 0.00 | 0.00 | 0.00 | 99 | 1014.9 |
| 20260906102432 | 12 | 75 | 3.2 | 4.8 | 0.00 | 0.00 | 0.00 | 99 | 1014.9 |
| 20260906101927 | 12 | 32 | 1.6 | 1.6 | 0.00 | 0.00 | 0.00 | 99 | 1014.9 |
| 20260906101422 | 12 | 69 | 3.2 | 3.2 | 0.00 | 0.00 | 0.00 | 99 | 1014.9 |
| 20260906100918 | 12 | 94 | 1.6 | 3.2 | 0.00 | 0.00 | 0.00 | 99 | 1015.0 |
| 20260906100417 | 12 | 76 | 1.6 | 3.2 | 0.00 | 0.00 | 0.00 | 99 | 1014.9 |
| 20260906095912 | 12 | 33 | 1.6 | 3.2 | 0.00 | 0.00 | 0.00 | 99 | 1014.7 |
| 20260906095408 | 12 | 48 | 3.2 | 3.2 | 0.00 | 0.00 | 0.00 | 99 | 1014.9 |
| 20260906094908 | 12 | 55 | 0.0 | 3.2 | 0.00 | 0.00 | 0.00 | 99 | 1014.5 |
| 20260906094403 | 12 | 49 | 3.2 | 3.2 | 0.00 | 0.00 | 0.00 | 99 | 1014.6 |
| 20260906093859 | 12 | 49 | 1.6 | 3.2 | 0.00 | 0.00 | 0.00 | 99 | 1014.4 |
| 20260906093355 | 12 | 24 | 3.2 | 3.2 | 0.00 | 0.00 | 0.00 | 99 | 1014.3 |
| 20260906092855 | 12 | 63 | 0.0 | 3.2 | 0.00 | 0.00 | 0.00 | 99 | 1014.4 |
| 20260906092349 | 12 | 32 | 0.0 | 3.2 | 0.00 | 0.00 | 0.00 | 99 | 1014.2 |
| 20260906091845 | 12 | 36 | 3.2 | 3.2 | 0.00 | 0.00 | 0.00 | 99 | 1014.4 |
| 20260906091341 | 12 | 19 | 3.2 | 4.8 | 0.00 | 0.00 | 0.00 | 99 | 1014.1 |
| 20260906090837 | 11 | 53 | 1.6 | 3.2 | 0.00 | 0.00 | 0.00 | 99 | 1014.2 |
| 20260906090336 | 11 | 40 | 3.2 | 3.2 | 0.00 | 0.00 | 0.00 | 99 | 1014.0 |
| 20260906085830 | 11 | 24 | 1.6 | 1.6 | 0.00 | 0.00 | 0.00 | 99 | 1013.9 |
| 20260906085329 | 11 | 304 | 0.0 | 1.6 | 0.00 | 0.00 | 0.00 | 99 | 1014.1 |
| 20260906084819 | 11 | 31 | 1.6 | 3.2 | 0.00 | 0.00 | 0.00 | 99 | 1013.9 |
| 20260906084318 | 12 | 54 | 1.6 | 3.2 | 0.00 | 0.00 | 0.00 | 99 | 1014.0 |
| 20260906083813 | 12 | 44 | 0.0 | 0.0 | 0.00 | 0.00 | 0.00 | 99 | 1013.8 |
| 20260906083308 | 12 | 69 | 0.0 | 1.6 | 0.00 | 0.00 | 0.00 | 99 | 1014.0 |
| 20260906082803 | 12 | 32 | 0.0 | 0.0 | 0.00 | 0.00 | 0.00 | 99 | 1013.8 |
| 20260906082258 | 12 | 50 | 0.0 | 1.6 | 0.00 | 0.00 | 0.00 | 99 | 1013.6 |
| 20260906081754 | 12 | 35 | 1.6 | 1.6 | 0.00 | 0.00 | 0.00 | 99 | 1013.6 |
| 20260906081249 | 12 | 50 | 0.0 | 1.6 | 0.00 | 0.00 | 0.00 | 99 | 1013.8 |
| 20260906080746 | 12 | 40 | 1.6 | 3.2 | 0.05 | 0.00 | 0.00 | 99 | 1013.5 |
| 20260906080242 | 12 | 55 | 3.2 | 3.2 | 0.05 | 0.00 | 0.00 | 99 | 1013.6 |
| 20260906075741 | 12 | 32 | 3.2 | 3.2 | 0.00 | 0.00 | 0.00 | 99 | 1013.8 |
| 20260906075241 | 12 | 103 | 0.0 | 3.2 | 0.00 | 0.00 | 0.00 | 99 | 1013.7 |
| 20260906074737 | 12 | 53 | 0.0 | 1.6 | 0.00 | 0.00 | 0.00 | 99 | 1013.6 |
| 20260906074236 | 12 | 59 | 1.6 | 1.6 | 0.00 | 0.00 | 0.00 | 99 | 1013.5 |
| 20260906073736 | 12 | 43 | 3.2 | 3.2 | 0.00 | 0.00 | 0.00 | 99 | 1013.8 |
| 20260906073231 | 12 | 24 | 1.6 | 3.2 | 0.00 | 0.00 | 0.00 | 99 | 1013.5 |
| 20260906072726 | 12 | 44 | 0.0 | 3.2 | 0.00 | 0.00 | 0.00 | 99 | 1013.7 |
| 20260906072222 | 12 | 93 | 1.6 | 3.2 | 0.00 | 0.00 | 0.00 | 99 | 1013.6 |
| 20260906071718 | 12 | 70 | 3.2 | 3.2 | 0.00 | 0.00 | 0.00 | 99 | 1013.8 |
| 20260906071218 | 12 | 55 | 1.6 | 3.2 | 0.00 | 0.00 | 0.00 | 99 | 1013.6 |
| 20260906070714 | 12 | 62 | 3.2 | 3.2 | 0.00 | 0.00 | 0.00 | 99 | 1013.7 |
| 20260906070210 | 12 | 63 | 0.0 | 3.2 | 0.00 | 0.00 | 0.00 | 99 | 1013.7 |
| 20260906065709 | 12 | 87 | 1.6 | 3.2 | 0.00 | 0.00 | 0.00 | 99 | 1013.6 |
| 20260906065205 | 12 | 80 | 3.2 | 3.2 | 0.00 | 0.00 | 0.00 | 99 | 1013.7 |
| 20260906064700 | 12 | 37 | 3.2 | 3.2 | 0.00 | 0.00 | 0.00 | 99 | 1013.7 |
| 20260906064155 | 12 | 54 | 3.2 | 3.2 | 0.00 | 0.00 | 0.00 | 99 | 1013.7 |
| 20260906063650 | 12 | 71 | 3.2 | 3.2 | 0.00 | 0.00 | 0.00 | 99 | 1013.7 |
| 20260906063146 | 12 | 46 | 0.0 | 0.0 | 0.00 | 0.00 | 0.00 | 99 | 1013.9 |
| 20260906062642 | 12 | 103 | 0.0 | 1.6 | 0.00 | 0.00 | 0.00 | 99 | 1013.8 |
| 20260906062140 | 12 | 58 | 0.0 | 3.2 | 0.00 | 0.00 | 0.00 | 99 | 1013.9 |
| 20260906061637 | 12 | 76 | 3.2 | 3.2 | 0.00 | 0.00 | 0.00 | 99 | 1014.0 |
| 20260906061137 | 12 | 73 | 3.2 | 3.2 | 0.00 | 0.00 | 0.00 | 99 | 1013.9 |
| 20260906060633 | 12 | 69 | 1.6 | 3.2 | 0.00 | 0.00 | 0.00 | 99 | 1014.0 |
| 20260906060130 | 12 | 52 | 0.0 | 0.0 | 0.00 | 0.00 | 0.00 | 99 | 1013.7 |
| 20260906055626 | 12 | 78 | 1.6 | 3.2 | 0.00 | 0.00 | 0.00 | 99 | 1013.9 |
| 20260906055120 | 12 | 80 | 3.2 | 3.2 | 0.00 | 0.00 | 0.00 | 99 | 1014.0 |
| 20260906054616 | 12 | 50 | 1.6 | 1.6 | 0.00 | 0.00 | 0.00 | 99 | 1013.9 |
| 20260906054111 | 12 | 43 | 1.6 | 1.6 | 0.00 | 0.00 | 0.00 | 99 | 1014.0 |
| 20260906053608 | 13 | 50 | 0.0 | 1.6 | 0.00 | 0.00 | 0.00 | 99 | 1014.0 |
| 20260906053103 | 13 | 39 | 1.6 | 3.2 | 0.00 | 0.00 | 0.00 | 99 | 1014.0 |
| 20260906052558 | 13 | 93 | 3.2 | 3.2 | 0.00 | 0.00 | 0.00 | 99 | 1013.9 |
| 20260906052055 | 13 | 34 | 0.0 | 1.6 | 0.00 | 0.00 | 0.00 | 99 | 1014.0 |
| 20260906051550 | 13 | 50 | 1.6 | 3.2 | 0.00 | 0.00 | 0.00 | 99 | 1013.9 |
| 20260906051045 | 13 | 83 | 1.6 | 1.6 | 0.00 | 0.00 | 0.00 | 99 | 1014.2 |
| 20260906050535 | 13 | 93 | 1.6 | 3.2 | 0.00 | 0.00 | 0.00 | 99 | 1014.0 |
| 20260906050031 | 13 | 49 | 1.6 | 3.2 | 0.00 | 0.00 | 0.00 | 99 | 1014.0 |
| 20260906045529 | 13 | 22 | 0.0 | 0.0 | 0.00 | 0.00 | 0.00 | 99 | 1013.9 |
| 20260906045024 | 13 | 38 | 0.0 | 0.0 | 0.00 | 0.00 | 0.00 | 99 | 1014.0 |
| 20260906044519 | 13 | 47 | 0.0 | 3.2 | 0.00 | 0.00 | 0.00 | 99 | 1014.0 |
| 20260906044009 | 13 | 91 | 3.2 | 3.2 | 0.00 | 0.00 | 0.00 | 99 | 1014.0 |
| 20260906043505 | 13 | 62 | 3.2 | 3.2 | 0.00 | 0.00 | 0.00 | 99 | 1013.8 |
| 20260906043001 | 13 | 74 | 3.2 | 3.2 | 0.00 | 0.00 | 0.00 | 99 | 1014.0 |
| 20260906042500 | 13 | 35 | 0.0 | 1.6 | 0.00 | 0.00 | 0.00 | 99 | 1013.9 |
| 20260906041959 | 13 | 44 | 0.0 | 1.6 | 0.00 | 0.00 | 0.00 | 99 | 1014.0 |
| 20260906041456 | 13 | 311 | 0.0 | 1.6 | 0.00 | 0.00 | 0.00 | 99 | 1014.0 |
| 20260906040955 | 13 | 321 | 1.6 | 1.6 | 0.00 | 0.00 | 0.00 | 99 | 1014.0 |
| 20260906040450 | 13 | 44 | 0.0 | 1.6 | 0.00 | 0.00 | 0.00 | 99 | 1013.9 |
| 20260906035945 | 13 | 38 | 0.0 | 0.0 | 0.00 | 0.00 | 0.00 | 99 | 1013.9 |
| 20260906035441 | 13 | 60 | 0.0 | 1.6 | 0.00 | 0.00 | 0.00 | 99 | 1013.8 |
| 20260906034936 | 13 | 42 | 0.0 | 1.6 | 0.00 | 0.00 | 0.00 | 99 | 1013.8 |
| 20260906034431 | 13 | 66 | 1.6 | 1.6 | 0.00 | 0.00 | 0.00 | 99 | 1013.8 |
| 20260906033926 | 13 | 37 | 0.0 | 3.2 | 0.00 | 0.00 | 0.00 | 99 | 1014.0 |
| 20260906033421 | 13 | 93 | 3.2 | 3.2 | 0.00 | 0.00 | 0.00 | 99 | 1013.6 |
| 20260906032916 | 13 | 40 | 1.6 | 3.2 | 0.00 | 0.00 | 0.00 | 99 | 1013.8 |
| 20260906032413 | 13 | 21 | 0.0 | 1.6 | 0.00 | 0.00 | 0.00 | 99 | 1013.6 |
| 20260906031907 | 13 | 347 | 0.0 | 1.6 | 0.00 | 0.00 | 0.00 | 99 | 1013.6 |
| 20260906031403 | 13 | 46 | 1.6 | 1.6 | 0.00 | 0.00 | 0.00 | 99 | 1013.5 |
| 20260906030857 | 13 | 95 | 1.6 | 3.2 | 0.00 | 0.00 | 0.00 | 99 | 1013.5 |
| 20260906030352 | 14 | 72 | 3.2 | 3.2 | 0.00 | 0.00 | 0.00 | 99 | 1013.4 |
| 20260906025846 | 14 | 58 | 3.2 | 3.2 | 0.00 | 0.00 | 0.00 | 99 | 1013.5 |
| 20260906025341 | 14 | 46 | 3.2 | 3.2 | 0.00 | 0.00 | 0.00 | 99 | 1013.7 |
| 20260906024840 | 14 | 74 | 3.2 | 3.2 | 0.00 | 0.00 | 0.00 | 99 | 1013.7 |
| 20260906024339 | 14 | 89 | 0.0 | 3.2 | 0.00 | 0.00 | 0.00 | 99 | 1013.5 |
| 20260906023835 | 14 | 77 | 3.2 | 3.2 | 0.00 | 0.00 | 0.00 | 99 | 1013.7 |
| 20260906023330 | 14 | 49 | 1.6 | 1.6 | 0.00 | 0.00 | 0.00 | 99 | 1013.5 |
| 20260906022826 | 14 | 55 | 0.0 | 1.6 | 0.00 | 0.00 | 0.00 | 99 | 1013.7 |
| 20260906022321 | 14 | 80 | 3.2 | 3.2 | 0.00 | 0.00 | 0.00 | 99 | 1013.5 |
| 20260906021816 | 15 | 82 | 1.6 | 3.2 | 0.00 | 0.00 | 0.00 | 99 | 1013.6 |
| 20260906021316 | 15 | 56 | 1.6 | 3.2 | 0.00 | 0.00 | 0.00 | 99 | 1013.6 |
| 20260906020815 | 15 | 51 | 0.0 | 3.2 | 0.00 | 0.00 | 0.00 | 99 | 1013.6 |
| 20260906020315 | 15 | 68 | 3.2 | 3.2 | 0.00 | 0.00 | 0.00 | 99 | 1013.5 |
| 20260906015810 | 15 | 54 | 0.0 | 1.6 | 0.00 | 0.00 | 0.00 | 99 | 1013.3 |
| 20260906015308 | 15 | 32 | 0.0 | 1.6 | 0.00 | 0.00 | 0.00 | 99 | 1013.5 |
| 20260906014803 | 15 | 50 | 0.0 | 0.0 | 0.00 | 0.00 | 0.00 | 99 | 1013.1 |
| 20260906014259 | 15 | 66 | 0.0 | 1.6 | 0.00 | 0.00 | 0.00 | 99 | 1013.1 |
| 20260906013755 | 15 | 50 | 0.0 | 1.6 | 0.00 | 0.00 | 0.00 | 99 | 1013.3 |
| 20260906013255 | 15 | 77 | 1.6 | 3.2 | 0.00 | 0.00 | 0.00 | 99 | 1013.0 |
| 20260906012750 | 15 | 85 | 1.6 | 3.2 | 0.00 | 0.00 | 0.00 | 99 | 1013.1 |
| 20260906012245 | 15 | 65 | 1.6 | 1.6 | 0.00 | 0.00 | 0.00 | 99 | 1012.9 |
| 20260906011740 | 15 | 52 | 0.0 | 1.6 | 0.00 | 0.00 | 0.00 | 99 | 1013.2 |
| 20260906011240 | 16 | 54 | 1.6 | 3.2 | 0.00 | 0.00 | 0.00 | 99 | 1013.3 |
| 20260906010735 | 16 | 34 | 0.0 | 1.6 | 0.00 | 0.00 | 0.00 | 99 | 1013.0 |
| 20260906010232 | 16 | 96 | 1.6 | 3.2 | 0.00 | 0.00 | 0.00 | 99 | 1013.0 |
| 20260906005727 | 16 | 33 | 1.6 | 1.6 | 0.00 | 0.00 | 0.00 | 99 | 1013.0 |
| 20260906005226 | 16 | 344 | 0.0 | 1.6 | 0.00 | 0.00 | 0.00 | 99 | 1013.2 |
| 20260906004725 | 16 | 30 | 0.0 | 1.6 | 0.00 | 0.00 | 0.00 | 98 | 1013.0 |
| 20260906004220 | 16 | 38 | 0.0 | 1.6 | 0.00 | 0.00 | 0.00 | 98 | 1012.9 |
| 20260906003715 | 16 | 44 | 0.0 | 1.6 | 0.00 | 0.00 | 0.00 | 98 | 1012.6 |
| 20260906003211 | 16 | 76 | 1.6 | 1.6 | 0.00 | 0.00 | 0.00 | 97 | 1012.6 |
| 20260906002711 | 16 | 53 | 1.6 | 1.6 | 0.00 | 0.00 | 0.00 | 97 | 1012.7 |
| 20260906002201 | 16 | 45 | 1.6 | 1.6 | 0.00 | 0.00 | 0.00 | 97 | 1012.5 |
| 20260906001656 | 16 | 29 | 0.0 | 3.2 | 0.00 | 0.00 | 0.00 | 96 | 1012.7 |
| 20260906001155 | 17 | 321 | 1.6 | 1.6 | 0.00 | 0.00 | 0.00 | 96 | 1012.7 |
| 20260906000651 | 17 | 89 | 0.0 | 1.6 | 0.00 | 0.00 | 0.00 | 95 | 1012.7 |
| 20260906000146 | 17 | 37 | 0.0 | 0.0 | 0.00 | 0.00 | 0.00 | 95 | 1012.6 |
| 20260905235645 | 17 | 39 | 0.0 | 1.6 | 0.00 | 0.00 | 0.00 | 94 | 1012.6 |
| 20260905235140 | 17 | 80 | 1.6 | 3.2 | 0.00 | 0.00 | 0.00 | 94 | 1012.3 |
| 20260905234635 | 17 | 316 | 1.6 | 3.2 | 0.00 | 0.00 | 0.00 | 93 | 1012.6 |
| 20260905234132 | 17 | 13 | 0.0 | 3.2 | 0.00 | 0.00 | 0.00 | 92 | 1012.4 |
| 20260905233631 | 18 | 79 | 3.2 | 3.2 | 0.00 | 0.00 | 0.00 | 91 | 1012.7 |
| 20260905233125 | 18 | 50 | 0.0 | 1.6 | 0.00 | 0.00 | 0.00 | 90 | 1012.6 |
| 20260905232621 | 18 | 95 | 1.6 | 1.6 | 0.00 | 0.00 | 0.00 | 90 | 1012.5 |
| 20260905232117 | 18 | 44 | 0.0 | 0.0 | 0.00 | 0.00 | 0.00 | 88 | 1012.6 |
| 20260905231617 | 19 | 13 | 1.6 | 3.2 | 0.00 | 0.00 | 0.00 | 85 | 1012.5 |
| 20260905231113 | 20 | 0 | 3.2 | 3.2 | 0.00 | 0.00 | 0.00 | 83 | 1012.3 |
| 20260905230609 | 20 | 20 | 3.2 | 4.8 | 0.00 | 0.00 | 0.00 | 82 | 1012.3 |
| 20260905230106 | 20 | 22 | 4.8 | 4.8 | 0.00 | 0.00 | 0.00 | 81 | 1012.3 |
| 20260905225600 | 20 | 11 | 3.2 | 3.2 | 0.00 | 0.00 | 0.00 | 81 | 1012.3 |
| 20260905225055 | 20 | 13 | 0.0 | 3.2 | 0.00 | 0.00 | 0.00 | 82 | 1012.3 |
| 20260905224555 | 20 | 12 | 3.2 | 3.2 | 0.00 | 0.00 | 0.00 | 80 | 1012.5 |
| 20260905224055 | 21 | 16 | 1.6 | 3.2 | 0.00 | 0.00 | 0.00 | 78 | 1012.4 |
| 20260905223552 | 21 | 22 | 3.2 | 3.2 | 0.00 | 0.00 | 0.00 | 79 | 1012.3 |
| 20260905223048 | 21 | 21 | 1.6 | 3.2 | 0.00 | 0.00 | 0.00 | 77 | 1012.4 |
| 20260905222548 | 21 | 16 | 3.2 | 4.8 | 0.00 | 0.00 | 0.00 | 77 | 1012.1 |
| 20260905222043 | 21 | 320 | 0.0 | 3.2 | 0.00 | 0.00 | 0.00 | 79 | 1012.2 |
| 20260905221540 | 21 | 30 | 0.0 | 3.2 | 0.00 | 0.00 | 0.00 | 75 | 1012.2 |
| 20260905221036 | 21 | 19 | 1.6 | 4.8 | 0.00 | 0.00 | 0.00 | 75 | 1012.0 |
| 20260905220531 | 22 | 15 | 4.8 | 4.8 | 0.00 | 0.00 | 0.00 | 72 | 1012.1 |
| 20260905220027 | 22 | 26 | 3.2 | 4.8 | 0.00 | 0.00 | 0.00 | 73 | 1012.2 |
| 20260905215526 | 22 | 50 | 0.0 | 3.2 | 0.00 | 0.00 | 0.00 | 70 | 1011.9 |
| 20260905215023 | 22 | 26 | 1.6 | 3.2 | 0.00 | 0.00 | 0.00 | 70 | 1011.9 |
| 20260905214518 | 22 | 10 | 3.2 | 3.2 | 0.00 | 0.00 | 0.00 | 71 | 1012.0 |
| 20260905214013 | 22 | 355 | 3.2 | 4.8 | 0.00 | 0.00 | 0.00 | 72 | 1011.8 |
| 20260905213509 | 22 | 0 | 3.2 | 4.8 | 0.00 | 0.00 | 0.00 | 73 | 1011.8 |
| 20260905213004 | 22 | 11 | 3.2 | 4.8 | 0.00 | 0.00 | 0.00 | 70 | 1011.8 |
| 20260905212459 | 22 | 17 | 3.2 | 3.2 | 0.00 | 0.00 | 0.00 | 71 | 1011.7 |
| 20260905211958 | 22 | 50 | 0.0 | 4.8 | 0.00 | 0.00 | 0.00 | 72 | 1011.8 |
| 20260905211454 | 22 | 355 | 3.2 | 3.2 | 0.00 | 0.00 | 0.00 | 75 | 1011.8 |
| 20260905210950 | 22 | 344 | 3.2 | 3.2 | 0.00 | 0.00 | 0.00 | 70 | 1011.4 |
| 20260905210445 | 22 | 18 | 4.8 | 6.4 | 0.00 | 0.00 | 0.00 | 75 | 1011.5 |
| 20260905205944 | 22 | 47 | 1.6 | 4.8 | 0.00 | 0.00 | 0.00 | 74 | 1011.5 |
| 20260905205439 | 22 | 135 | 4.8 | 8.0 | 0.00 | 0.00 | 0.00 | 74 | 1011.6 |
| 20260905204938 | 22 | 40 | 1.6 | 3.2 | 0.00 | 0.00 | 0.00 | 75 | 1011.7 |
| 20260905204434 | 21 | 15 | 3.2 | 3.2 | 0.00 | 0.00 | 0.00 | 74 | 1011.6 |
| 20260905203933 | 21 | 7 | 3.2 | 4.8 | 0.00 | 0.00 | 0.00 | 73 | 1011.4 |
| 20260905203429 | 22 | 0 | 4.8 | 4.8 | 0.00 | 0.00 | 0.00 | 71 | 1011.5 |
| 20260905202924 | 22 | 353 | 6.4 | 6.4 | 0.00 | 0.00 | 0.00 | 72 | 1011.4 |
| 20260905202419 | 23 | 34 | 1.6 | 3.2 | 0.00 | 0.00 | 0.00 | 70 | 1011.6 |
| 20260905201915 | 23 | 348 | 3.2 | 4.8 | 0.00 | 0.00 | 0.00 | 68 | 1011.4 |
| 20260905201409 | 23 | 7 | 3.2 | 6.4 | 0.00 | 0.00 | 0.00 | 66 | 1011.6 |
| 20260905200904 | 23 | 6 | 6.4 | 6.4 | 0.00 | 0.00 | 0.00 | 67 | 1011.5 |
| 20260905200400 | 23 | 41 | 3.2 | 3.2 | 0.00 | 0.00 | 0.00 | 73 | 1011.6 |
| 20260905195857 | 22 | 36 | 1.6 | 4.8 | 0.00 | 0.00 | 0.00 | 72 | 1011.6 |
| 20260905195353 | 22 | 13 | 1.6 | 3.2 | 0.00 | 0.00 | 0.00 | 73 | 1011.5 |
| 20260905194849 | 22 | 266 | 1.6 | 3.2 | 0.00 | 0.00 | 0.00 | 73 | 1011.6 |
| 20260905194348 | 22 | 20 | 1.6 | 3.2 | 0.00 | 0.00 | 0.00 | 76 | 1011.7 |
| 20260905193847 | 21 | 13 | 1.6 | 3.2 | 0.00 | 0.00 | 0.00 | 76 | 1011.6 |
| 20260905193342 | 22 | 337 | 3.2 | 4.8 | 0.00 | 0.00 | 0.00 | 73 | 1011.5 |
| 20260905192838 | 22 | 29 | 1.6 | 6.4 | 0.00 | 0.00 | 0.00 | 72 | 1011.6 |
| 20260905192334 | 23 | 106 | 1.6 | 4.8 | 0.00 | 0.00 | 0.00 | 67 | 1011.6 |
| 20260905191833 | 23 | 311 | 3.2 | 4.8 | 0.00 | 0.00 | 0.00 | 68 | 1011.4 |
| 20260905191332 | 23 | 130 | 4.8 | 11.3 | 0.00 | 0.00 | 0.00 | 68 | 1011.6 |
| 20260905190831 | 22 | 69 | 1.6 | 3.2 | 0.00 | 0.00 | 0.00 | 72 | 1011.7 |
| 20260905190325 | 22 | 18 | 1.6 | 3.2 | 0.00 | 0.00 | 0.00 | 74 | 1011.7 |
| 20260905185823 | 22 | 48 | 3.2 | 3.2 | 0.00 | 0.00 | 0.00 | 74 | 1011.6 |
| 20260905185319 | 22 | 23 | 4.8 | 6.4 | 0.00 | 0.00 | 0.00 | 73 | 1011.7 |
| 20260905184812 | 22 | 328 | 6.4 | 6.4 | 0.00 | 0.00 | 0.00 | 76 | 1011.8 |
| 20260905184311 | 22 | 312 | 4.8 | 4.8 | 0.00 | 0.00 | 0.00 | 76 | 1011.7 |
| 20260905183810 | 22 | 1 | 1.6 | 4.8 | 0.00 | 0.00 | 0.00 | 70 | 1011.6 |
| 20260905183306 | 22 | 73 | 3.2 | 3.2 | 0.00 | 0.00 | 0.00 | 71 | 1011.8 |
| 20260905182800 | 22 | 52 | 3.2 | 4.8 | 0.00 | 0.00 | 0.00 | 70 | 1011.6 |
| 20260905182300 | 22 | 26 | 3.2 | 3.2 | 0.00 | 0.00 | 0.00 | 70 | 1011.6 |
| 20260905181755 | 22 | 26 | 3.2 | 4.8 | 0.00 | 0.00 | 0.00 | 71 | 1011.6 |
| 20260905181254 | 22 | 50 | 3.2 | 6.4 | 0.00 | 0.00 | 0.00 | 71 | 1011.7 |
| 20260905180748 | 22 | 26 | 3.2 | 6.4 | 0.00 | 0.00 | 0.00 | 71 | 1011.6 |
| 20260905180243 | 22 | 10 | 1.6 | 4.8 | 0.00 | 0.00 | 0.00 | 72 | 1011.7 |
| 20260905175739 | 22 | 9 | 4.8 | 4.8 | 0.00 | 0.00 | 0.00 | 72 | 1011.6 |
| 20260905175233 | 22 | 347 | 3.2 | 4.8 | 0.00 | 0.00 | 0.00 | 72 | 1011.7 |
| 20260905174728 | 22 | 12 | 3.2 | 4.8 | 0.00 | 0.00 | 0.00 | 71 | 1011.7 |
| 20260905174224 | 22 | 31 | 3.2 | 3.2 | 0.00 | 0.00 | 0.00 | 71 | 1011.8 |
| 20260905173720 | 22 | 22 | 3.2 | 3.2 | 0.00 | 0.00 | 0.00 | 69 | 1011.6 |
| 20260905173215 | 22 | 0 | 0.0 | 3.2 | 0.00 | 0.00 | 0.00 | 68 | 1011.7 |
| 20260905172709 | 22 | 351 | 3.2 | 4.8 | 0.00 | 0.00 | 0.00 | 71 | 1011.6 |
| 20260905172203 | 22 | 323 | 3.2 | 6.4 | 0.00 | 0.00 | 0.00 | 71 | 1011.8 |
| 20260905171659 | 23 | 24 | 6.4 | 9.7 | 0.00 | 0.00 | 0.00 | 68 | 1011.7 |
| 20260905171155 | 23 | 35 | 1.6 | 4.8 | 0.00 | 0.00 | 0.00 | 66 | 1011.8 |
| 20260905170652 | 22 | 19 | 3.2 | 3.2 | 0.00 | 0.00 | 0.00 | 70 | 1012.0 |
| 20260905170147 | 21 | 16 | 1.6 | 3.2 | 0.00 | 0.00 | 0.00 | 72 | 1011.9 |
| 20260905165646 | 21 | 10 | 3.2 | 6.4 | 0.00 | 0.00 | 0.00 | 71 | 1011.8 |
| 20260905165142 | 22 | 4 | 3.2 | 3.2 | 0.00 | 0.00 | 0.00 | 69 | 1011.7 |
| 20260905164637 | 22 | 5 | 4.8 | 6.4 | 0.00 | 0.00 | 0.00 | 71 | 1012.1 |
| 20260905164136 | 23 | 17 | 0.0 | 4.8 | 0.00 | 0.00 | 0.00 | 67 | 1011.9 |
| 20260905163632 | 23 | 117 | 4.8 | 6.4 | 0.00 | 0.00 | 0.00 | 72 | 1011.9 |
| 20260905163128 | 22 | 348 | 3.2 | 3.2 | 0.00 | 0.00 | 0.00 | 71 | 1011.9 |
| 20260905162624 | 22 | 49 | 3.2 | 4.8 | 0.00 | 0.00 | 0.00 | 75 | 1012.0 |
| 20260905162123 | 21 | 22 | 3.2 | 6.4 | 0.00 | 0.00 | 0.00 | 75 | 1012.0 |
| 20260905161623 | 21 | 356 | 3.2 | 3.2 | 0.00 | 0.00 | 0.00 | 79 | 1011.9 |
| 20260905161121 | 21 | 12 | 3.2 | 3.2 | 0.00 | 0.00 | 0.00 | 74 | 1012.0 |
| 20260905160621 | 21 | 72 | 3.2 | 3.2 | 0.00 | 0.00 | 0.00 | 75 | 1012.0 |
| 20260905160115 | 21 | 32 | 0.0 | 3.2 | 0.00 | 0.00 | 0.00 | 72 | 1012.0 |
| 20260905155609 | 22 | 127 | 4.8 | 6.4 | 0.00 | 0.00 | 0.00 | 73 | 1012.0 |
| 20260905155108 | 21 | 38 | 3.2 | 3.2 | 0.00 | 0.00 | 0.00 | 74 | 1012.0 |
| 20260905154608 | 20 | 5 | 4.8 | 4.8 | 0.00 | 0.00 | 0.00 | 76 | 1012.2 |
| 20260905154104 | 20 | 350 | 3.2 | 4.8 | 0.00 | 0.00 | 0.00 | 76 | 1012.1 |
| 20260905153600 | 20 | 120 | 3.2 | 4.8 | 0.00 | 0.00 | 0.00 | 80 | 1012.1 |
| 20260905153059 | 21 | 359 | 4.8 | 4.8 | 0.00 | 0.00 | 0.00 | 76 | 1012.1 |
| 20260905152554 | 20 | 16 | 3.2 | 3.2 | 0.00 | 0.00 | 0.00 | 80 | 1012.3 |
| 20260905152049 | 21 | 71 | 0.0 | 3.2 | 0.00 | 0.00 | 0.00 | 78 | 1012.2 |
| 20260905151545 | 21 | 13 | 4.8 | 6.4 | 0.00 | 0.00 | 0.00 | 75 | 1012.0 |
| 20260905151040 | 21 | 93 | 1.6 | 4.8 | 0.00 | 0.00 | 0.00 | 76 | 1012.0 |
| 20260905150535 | 21 | 109 | 4.8 | 6.4 | 0.00 | 0.00 | 0.00 | 77 | 1012.2 |
| 20260905150033 | 20 | 76 | 4.8 | 6.4 | 0.00 | 0.00 | 0.00 | 78 | 1012.1 |
| 20260905145527 | 20 | 91 | 3.2 | 4.8 | 0.00 | 0.00 | 0.00 | 79 | 1012.4 |
| 20260905145026 | 20 | 55 | 0.0 | 4.8 | 0.00 | 0.00 | 0.00 | 78 | 1012.2 |
| 20260905144521 | 21 | 29 | 0.0 | 8.0 | 0.00 | 0.00 | 0.00 | 76 | 1012.1 |
| 20260905144020 | 21 | 3 | 3.2 | 6.4 | 0.00 | 0.00 | 0.00 | 75 | 1012.1 |
| 20260905143520 | 21 | 10 | 3.2 | 4.8 | 0.00 | 0.00 | 0.00 | 78 | 1012.3 |
| 20260905143015 | 20 | 357 | 3.2 | 6.4 | 0.00 | 0.00 | 0.00 | 79 | 1012.1 |
| 20260905142513 | 20 | 352 | 3.2 | 4.8 | 0.00 | 0.00 | 0.00 | 82 | 1012.3 |
| 20260905142009 | 20 | 2 | 3.2 | 6.4 | 0.00 | 0.00 | 0.00 | 80 | 1012.4 |